Flag for U.S.A. Weather past 2 weeks in Bellingham, Washington, U.S.A.

Now
60 °F

Partly sunny.


Feels Like: 60 °F
Forecast: 53 / 71 °F
Wind: 6 mph from South

Location: Bellingham International Airport

Current Time: Jul 22, 2014 at 1:09:07 PM

Latest Report: Jul 22, 2014 at 9:53 AM


Visibility: 10 mi

Pressure: 30.05 "Hg

Humidity: 78%

Dew point: 53 °F

Location of BellinghamLocation

Historic Weather in Bellingham — Graph

°F

Bellingham temperature yesterday

Maximum temperature yesterday: 71 °F (at 4:53 PM)
Minimum temperature yesterday: 54 °F (at 1:53 AM)
Average temperature yesterday: 62 °F

Past Weeks' High & Low Weather Summary

 TemperatureHumidityPressure
High85 °F (Jul 13, 2:53 PM)93% (Jul 10, 5:53 AM)30.15 "Hg (Jul 10, 5:53 AM)
Low53 °F (Jul 22, 1:53 AM)37% (Jul 11, 5:53 PM)29.90 "Hg (Jul 16, 8:53 PM)
Average66 °F69%30.02 "Hg
* Reported Jul 7 9:53 AM — Jul 22 9:53 AM, Bellingham, Weather by CustomWeather, © 2014

Note: Actual official high and low records may vary slightly from our data, if they occured in-between our weather recording intervals... More about our weather records

Advertising

Bellingham weather history for previous 24 hours

 ConditionsComfort  
Time TempWeatherWind HumidityBarometerVisibility
9:53 AM
Jul 22
60 °FPartly sunny.6 mph78%30.05 "Hg10 mi
8:53 AM60 °FPartly sunny.6 mph78%30.05 "Hg10 mi
7:53 AM59 °FSunny.5 mph81%30.04 "Hg10 mi
6:53 AM57 °FScattered clouds.No wind87%30.03 "Hg10 mi
5:53 AM54 °FPassing clouds.No wind90%30.03 "Hg9 mi
4:53 AM56 °FPassing clouds.5 mph87%30.03 "Hg10 mi
3:53 AM56 °FClear.5 mph87%30.02 "Hg10 mi
2:53 AM55 °FClear.3 mph90%30.02 "Hg10 mi
1:53 AM53 °FClear.No wind86%30.02 "Hg10 mi
12:53 AM58 °FClear.5 mph81%30.02 "Hg10 mi
11:53 PM
Jul 21
61 °FClear.7 mph78%30.01 "Hg10 mi
10:53 PM62 °FClear.7 mph73%30.00 "Hg10 mi
9:53 PM60 °FSunny.3 mph72%30.00 "Hg10 mi
8:53 PM62 °FSunny.No wind67%29.99 "Hg10 mi
7:53 PM68 °FSunny.No wind51%29.99 "Hg10 mi
6:53 PM70 °FSunny.5 mph47%29.99 "Hg10 mi
5:53 PM71 °FSunny.3 mph44%30.00 "Hg10 mi
4:53 PM71 °FSunny.6 mph42%30.01 "Hg10 mi
3:53 PM69 °FScattered clouds.5 mph45%30.02 "Hg10 mi
2:53 PM70 °FPassing clouds.8 mph46%30.03 "Hg10 mi
1:53 PM68 °FSunny.6 mph49%30.04 "Hg10 mi
Weather by CustomWeather, © 2014

See weather overviewHow to use our weather pages